| time (UTC) | temp C | wind direction | speed KPH | gust KPH | rain 1hr cm | rain 24hr cm | rain mn cm | humidity % | barometer mb |
| 20260502192843 | -2 | 98 | 0.0 | 0.0 | 0.00 | 0.00 | 0.00 | 89 | 1028.8 |
| 20260502185851 | -1 | 98 | 0.0 | 0.0 | 0.00 | 0.00 | 0.00 | 84 | 1028.6 |
| 20260502182847 | 0 | 98 | 0.0 | 0.0 | 0.00 | 0.00 | 0.00 | 82 | 1028.4 |
| 20260502181338 | 1 | 98 | 0.0 | 0.0 | 0.00 | 0.00 | 0.00 | 82 | 1028.3 |
| 20260502164338 | 8 | 84 | 3.2 | 9.7 | 0.00 | 0.00 | 0.00 | 67 | 1028.4 |
| 20260502161345 | 9 | 99 | 1.6 | 8.0 | 0.00 | 0.00 | 0.00 | 66 | 1028.5 |
| 20260502151332 | 11 | 80 | 3.2 | 9.7 | 0.00 | 0.00 | 0.00 | 60 | 1029.2 |
| 20260502121348 | 11 | 63 | 3.2 | 9.7 | 0.00 | 0.00 | 0.00 | 60 | 1030.8 |
| 20260502115847 | 11 | 90 | 3.2 | 16.1 | 0.00 | 0.00 | 0.00 | 59 | 1030.8 |
| 20260502112851 | 11 | 233 | 3.2 | 11.3 | 0.00 | 0.00 | 0.00 | 60 | 1031.2 |
| 20260502111345 | 11 | 47 | 1.6 | 11.3 | 0.00 | 0.00 | 0.00 | 61 | 1031.2 |
| 20260502104350 | 10 | 257 | 0.0 | 9.7 | 0.00 | 0.00 | 0.00 | 59 | 1031.8 |
| 20260502101355 | 10 | 83 | 3.2 | 12.9 | 0.00 | 0.00 | 0.00 | 59 | 1032.0 |
| 20260502091341 | 11 | 78 | 1.6 | 8.0 | 0.00 | 0.00 | 0.00 | 58 | 1032.1 |
| 20260502071348 | 8 | 98 | 0.0 | 8.0 | 0.00 | 0.00 | 0.00 | 63 | 1033.0 |
| 20260502062847 | 5 | 137 | 0.0 | 6.4 | 0.00 | 0.00 | 0.00 | 82 | 1033.2 |
| 20260502061340 | 0 | 116 | 1.6 | 8.0 | 0.00 | 0.00 | 0.00 | 93 | 1033.3 |
| 20260502055835 | -5 | 255 | 0.0 | 0.0 | 0.00 | 0.00 | 0.00 | 93 | 1033.4 |
| 20260502054329 | -7 | 254 | 0.0 | 1.6 | 0.00 | 0.00 | 0.00 | 93 | 1033.3 |
| 20260502051336 | -8 | 255 | 0.0 | 0.0 | 0.00 | 0.00 | 0.00 | 93 | 1033.1 |
| 20260502044348 | -9 | 255 | 0.0 | 0.0 | 0.00 | 0.00 | 0.00 | 92 | 1033.0 |
| 20260502041346 | -9 | 255 | 0.0 | 0.0 | 0.00 | 0.00 | 0.00 | 92 | 1033.0 |
| 20260502034350 | -8 | 255 | 0.0 | 0.0 | 0.00 | 0.00 | 0.00 | 92 | 1032.7 |
| 20260502032840 | -8 | 255 | 0.0 | 0.0 | 0.00 | 0.00 | 0.00 | 92 | 1032.8 |
| 20260502025847 | -8 | 255 | 0.0 | 0.0 | 0.00 | 0.00 | 0.00 | 92 | 1032.7 |
| 20260502024339 | -8 | 255 | 0.0 | 0.0 | 0.00 | 0.00 | 0.00 | 92 | 1032.7 |
| 20260502022833 | -8 | 255 | 0.0 | 0.0 | 0.00 | 0.00 | 0.00 | 92 | 1032.6 |
| 20260502015847 | -7 | 255 | 0.0 | 0.0 | 0.00 | 0.00 | 0.00 | 92 | 1032.4 |
| 20260502012850 | -7 | 255 | 0.0 | 0.0 | 0.00 | 0.00 | 0.00 | 92 | 1032.6 |
| 20260502011338 | -7 | 255 | 0.0 | 0.0 | 0.00 | 0.00 | 0.00 | 92 | 1032.6 |
| 20260502005831 | -7 | 254 | 0.0 | 0.0 | 0.00 | 0.00 | 0.00 | 92 | 1032.6 |
| 20260502002900 | -6 | 255 | 0.0 | 0.0 | 0.00 | 0.00 | 0.00 | 92 | 1032.5 |
| 20260502001341 | -6 | 255 | 0.0 | 0.0 | 0.00 | 0.00 | 0.00 | 92 | 1032.2 |
| 20260501234345 | -6 | 255 | 0.0 | 0.0 | 0.00 | 0.00 | 0.00 | 92 | 1032.2 |
| 20260501231430 | -5 | 255 | 0.0 | 0.0 | 0.00 | 0.00 | 0.00 | 93 | 1031.9 |
| 20260501225847 | -17 | 255 | 0.0 | 0.0 | 0.00 | 0.00 | 0.00 | 1031.9 | |
| 20260501222848 | -17 | 0.0 | 0.0 | 0.00 | 0.00 | 0.00 | 1032.1 | ||
| 20260501215855 | -4 | 255 | 0.0 | 0.0 | 0.00 | 0.00 | 0.00 | 91 | 1032.1 |
| 20260501212851 | -3 | 255 | 0.0 | 0.0 | 0.00 | 0.00 | 0.00 | 88 | 1032.0 |
| 20260501211345 | -2 | 254 | 0.0 | 0.0 | 0.00 | 0.00 | 0.00 | 87 | 1031.8 |
| 20260501204525 | 0 | 255 | 0.0 | 0.0 | 0.00 | 0.00 | 0.00 | 85 | 1031.8 |
| 20260501201336 | 2 | 255 | 0.0 | 3.2 | 0.00 | 0.00 | 0.00 | 86 | 1031.7 |